Location: Isola Pescaroli
(45.0500°N, 10.1667°E)
Time: 17:59:19
(UTC+00:00)

Okean 1-7 - Pass Details

Date: 03 March 2021
Orbit: 589 x 619 km, 82.5° (Epoch: 19 April)

Event Time Altitude Azimuth Distance (km) Brightness Sun altitude
Rises 17:57:52 0° 1° (N) 2,897 6.5 -9.3°
Reaches altitude 10° 18:00:24 10° 14° (NNE) 1,982 5.5 -9.8°
Maximum altitude 18:04:09 27° 73° (ENE) 1,179 4.0 -10.4°
Drops below altitude 10° 18:07:51 10° 132° (SE) 1,954 5.2 -11.1°
Enters shadow 18:08:44 - 137° (SE) 2,259 5.5 -11.2°
